Hourly Weather Roundup
Issued by NWS Central Illinois

Home | Current Version | Previous Version | Text Only | Print | Product List | Glossary On
Versions: 1 2 3 4 5 6 7 8 9 10 11 12 13 14 15 16 17 18 19 20 21 22 23 24 25 26 27 28 29 30 31 32 33 34 35 36 37 38 39 40 41 42 43 44 45 46 47 48 49 50
000
NZUS43 KILX 242210
HWRILX

AREA WEATHER ROUNDUP
NATIONAL WEATHER SERVICE, LINCOLN IL
500 PM CDT THU JUL 24 2014


CITY           SKY/WX    TMP DP  RH WIND       PRES   REMARKS
BLOOMINGTON    SUNNY     75  54  48 E9        30.09F
CHAMPAIGN      MOSUNNY   76  57  51 NE7       30.07F
DECATUR        SUNNY     77  56  48 CALM      30.07F
FLORA          SUNNY     77  54  43 NE3       30.06S
GALESBURG      PTSUNNY   82  58  43 CALM      30.09S HX  82
JACKSONVILLE   SUNNY     78  55  43 NE8       30.08F
LACON          SUNNY     76  52  42 CALM      30.08R
LAWRENCEVILLE  SUNNY     79  59  50 VRB7      30.04F HX  80
LITCHFIELD     SUNNY     78  54  43 NE7       30.06F
$$


CITY           SKY/WX    TMP DP  RH WIND       PRES   REMARKS
LINCOLN        SUNNY     78  53  41 E6        30.04R
MACOMB         MOSUNNY   76  56  50 E7        30.11R
MATTOON        MOSUNNY   77  56  48 N10       30.05F
MT CARMEL AP   MOSUNNY   81  57  44 N5        30.04F HX  81
OLNEY-NOBLE AP MOSUNNY   77  59  53 NE6       30.05F
PARIS          PTSUNNY   77  58  51 NE3       30.06F
PEORIA         SUNNY     79  52  38 NE5       30.09R
PONTIAC        SUNNY     77  55  47 CALM      30.08R
RANTOUL        SUNNY     77  50  38 NE8       30.08S
ROBINSON       PTSUNNY   81  58  45 NE7       30.05F HX  81
SPRINGFIELD    SUNNY     79  55  43 NE8       30.07F
TAYLORVILLE    SUNNY     75  54  46 N6        30.06F
$$

...REGIONAL REPORTS...


CITY           SKY/WX    TMP DP  RH WIND       PRES   REMARKS
CHICAGO O`HARE MOSUNNY   74  43  32 NE10      30.09F
KANKAKEE       SUNNY     74  53  48 CALM      30.08F
MOLINE         MOSUNNY   76  55  48 CALM      30.08S
MOUNT VERNON   MOSUNNY   77  57  50 N3        30.05F
PITTSFIELD     MOSUNNY   76  55  47 NE6       30.09S
QUINCY         MOSUNNY   77  54  44 NE3       30.08R
ROCKFORD       PTSUNNY   77  53  43 VRB3      30.10R
$$


CITY           SKY/WX    TMP DP  RH WIND       PRES   REMARKS
BURLINGTON     PTSUNNY   77  58  51 S5        30.09R
CEDAR RAPIDS   MOSUNNY   76  59  55 SW8       30.08F
DES MOINES     CLOUDY    75  61  61 VRB7      30.02F
KIRKSVILLE     PTSUNNY   78  58  49 SE6       30.12R
OTTUMWA        CLOUDY    75  60  59 S7        30.10R
ST LOUIS       MOSUNNY   81  53  37 VRB5      30.05F HX  80
$$


CITY           SKY/WX    TMP DP  RH WIND       PRES   REMARKS
TERRE HAUTE    PTSUNNY   77  57  50 VRB3      30.04F
EVANSVILLE     MOSUNNY   80  54  40 NE9       30.03F HX  80
INDIANAPOLIS   MOSUNNY   75  51  43 NE10      30.04F
LAFAYETTE      MOSUNNY   75  53  46 NE8       30.06F
MADISON        PTSUNNY   78  54  43 S9        30.07F
MILWAUKEE      MOSUNNY   70  44  39 SE9       30.11S
$$




USA.gov is the U.S. government's official web portal to all federal, state and local government web resources and services.